| time (UTC) | temp F | wind direction | speed knots | gust knots | rain 1hr in | rain 24hr in | rain mn in | humidity % | barometer mb |
| 20260902192005 | 89 | 218 | 10.4 | 17.4 | 0.00 | 0.00 | 0.00 | 6 | 1023.3 |
| 20260902191506 | 88 | 241 | 9.6 | 15.6 | 0.00 | 0.00 | 0.00 | 6 | 1023.5 |
| 20260902190503 | 88 | 221 | 10.4 | 17.4 | 0.00 | 0.00 | 0.00 | 6 | 1023.5 |
| 20260902190005 | 88 | 237 | 10.4 | 15.6 | 0.00 | 0.00 | 0.00 | 6 | 1023.7 |
| 20260902185005 | 87 | 219 | 8.7 | 17.4 | 0.00 | 0.00 | 0.00 | 6 | 1023.8 |
| 20260902183505 | 86 | 159 | 4.3 | 8.7 | 0.00 | 0.00 | 0.00 | 8 | 1023.9 |
| 20260902183003 | 85 | 146 | 0.9 | 7.0 | 0.00 | 0.00 | 0.00 | 11 | 1023.9 |
| 20260902182520 | 85 | 160 | 1.7 | 10.4 | 0.00 | 0.00 | 0.00 | 10 | 1023.9 |
| 20260902182019 | 84 | 135 | 4.3 | 8.7 | 0.00 | 0.00 | 0.00 | 11 | 1024.1 |
| 20260902181504 | 83 | 111 | 0.9 | 2.6 | 0.00 | 0.00 | 0.00 | 13 | 1024.0 |
| 20260902181005 | 83 | 122 | 0.9 | 7.0 | 0.00 | 0.00 | 0.00 | 13 | 1024.1 |
| 20260902180503 | 82 | 99 | 0.9 | 5.2 | 0.00 | 0.00 | 0.00 | 13 | 1024.2 |
| 20260902174503 | 81 | 40 | 0.0 | 4.3 | 0.00 | 0.00 | 0.00 | 14 | 1024.2 |
| 20260902173003 | 79 | 30 | 0.9 | 4.3 | 0.00 | 0.00 | 0.00 | 15 | 1024.4 |
| 20260902164503 | 78 | 25 | 2.6 | 7.0 | 0.00 | 0.00 | 0.00 | 16 | 1024.2 |
| 20260902163504 | 77 | 21 | 1.7 | 7.8 | 0.00 | 0.00 | 0.00 | 17 | 1024.1 |
| 20260902160004 | 75 | 36 | 3.5 | 6.1 | 0.00 | 0.00 | 0.00 | 17 | 1023.9 |
| 20260902154503 | 75 | 20 | 2.6 | 6.1 | 0.00 | 0.00 | 0.00 | 18 | 1023.9 |
| 20260902154005 | 75 | 44 | 1.7 | 4.3 | 0.00 | 0.00 | 0.00 | 18 | 1024.0 |
| 20260902153503 | 75 | 35 | 0.9 | 2.6 | 0.00 | 0.00 | 0.00 | 18 | 1023.9 |
| 20260902150004 | 73 | 22 | 0.9 | 2.6 | 0.00 | 0.00 | 0.00 | 18 | 1023.7 |
| 20260902145004 | 72 | 342 | 0.0 | 1.7 | 0.00 | 0.00 | 0.00 | 19 | 1023.6 |
| 20260902144503 | 71 | 342 | 0.0 | 0.0 | 0.00 | 0.00 | 0.00 | 19 | 1023.6 |
| 20260902144004 | 70 | 342 | 0.0 | 0.0 | 0.00 | 0.00 | 0.00 | 19 | 1023.5 |
| 20260902143504 | 70 | 342 | 0.0 | 0.0 | 0.00 | 0.00 | 0.00 | 20 | 1023.5 |
| 20260902143003 | 69 | 342 | 0.0 | 0.0 | 0.00 | 0.00 | 0.00 | 20 | 1023.6 |
| 20260902142503 | 68 | 342 | 0.0 | 0.0 | 0.00 | 0.00 | 0.00 | 20 | 1023.5 |
| 20260902141529 | 67 | 341 | 0.0 | 1.7 | 0.00 | 0.00 | 0.00 | 20 | 1023.5 |
| 20260902141004 | 66 | 331 | 0.0 | 2.6 | 0.00 | 0.00 | 0.00 | 20 | 1023.3 |
| 20260902134004 | 66 | 271 | 1.7 | 2.6 | 0.00 | 0.00 | 0.00 | 21 | 1023.0 |
| 20260902133503 | 66 | 261 | 0.9 | 2.6 | 0.00 | 0.00 | 0.00 | 21 | 1022.9 |
| 20260902132503 | 65 | 267 | 1.7 | 6.1 | 0.00 | 0.00 | 0.00 | 23 | 1022.8 |
| 20260902132004 | 62 | 263 | 0.9 | 5.2 | 0.00 | 0.00 | 0.00 | 24 | 1022.8 |
| 20260902131503 | 62 | 218 | 0.0 | 2.6 | 0.00 | 0.00 | 0.00 | 24 | 1022.9 |
| 20260902131004 | 63 | 211 | 0.9 | 2.6 | 0.00 | 0.00 | 0.00 | 24 | 1022.9 |
| 20260902130004 | 62 | 230 | 0.9 | 2.6 | 0.00 | 0.00 | 0.00 | 24 | 1022.9 |
| 20260902125503 | 63 | 205 | 0.0 | 2.6 | 0.00 | 0.00 | 0.00 | 24 | 1022.9 |
| 20260902124504 | 64 | 223 | 0.9 | 2.6 | 0.00 | 0.00 | 0.00 | 24 | 1022.9 |
| 20260902123004 | 64 | 256 | 1.7 | 4.3 | 0.00 | 0.00 | 0.00 | 24 | 1022.9 |
| 20260902122503 | 64 | 240 | 0.9 | 4.3 | 0.00 | 0.00 | 0.00 | 24 | 1023.0 |
| 20260902122004 | 64 | 240 | 0.9 | 2.6 | 0.00 | 0.00 | 0.00 | 25 | 1023.0 |
| 20260902121503 | 64 | 242 | 1.7 | 4.3 | 0.00 | 0.00 | 0.00 | 25 | 1023.0 |
| 20260902121004 | 64 | 231 | 2.6 | 5.2 | 0.00 | 0.00 | 0.00 | 25 | 1022.9 |
| 20260902120503 | 64 | 233 | 2.6 | 5.2 | 0.00 | 0.00 | 0.00 | 25 | 1022.9 |
| 20260902120004 | 64 | 231 | 1.7 | 6.1 | 0.00 | 0.00 | 0.00 | 26 | 1023.0 |
| 20260902115503 | 64 | 229 | 2.6 | 5.2 | 0.00 | 0.00 | 0.00 | 26 | 1022.9 |
| 20260902115004 | 64 | 226 | 3.5 | 5.2 | 0.00 | 0.00 | 0.00 | 26 | 1022.9 |
| 20260902114504 | 64 | 235 | 3.5 | 7.0 | 0.00 | 0.00 | 0.00 | 26 | 1022.9 |
| 20260902113503 | 63 | 219 | 1.7 | 2.6 | 0.00 | 0.00 | 0.00 | 28 | 1022.9 |
| 20260902112503 | 63 | 228 | 1.7 | 5.2 | 0.00 | 0.00 | 0.00 | 27 | 1022.7 |
| 20260902112004 | 62 | 225 | 3.5 | 5.2 | 0.00 | 0.00 | 0.00 | 27 | 1022.6 |
| 20260902111503 | 63 | 236 | 1.7 | 5.2 | 0.00 | 0.00 | 0.00 | 27 | 1022.6 |
| 20260902111004 | 62 | 227 | 1.7 | 4.3 | 0.00 | 0.00 | 0.00 | 27 | 1022.7 |
| 20260902110503 | 62 | 228 | 2.6 | 6.1 | 0.00 | 0.00 | 0.00 | 28 | 1022.7 |
| 20260902110005 | 62 | 229 | 1.7 | 4.3 | 0.00 | 0.00 | 0.00 | 28 | 1022.7 |
| 20260902105504 | 62 | 246 | 0.9 | 2.6 | 0.00 | 0.00 | 0.00 | 28 | 1022.6 |
| 20260902104003 | 62 | 229 | 0.9 | 2.6 | 0.00 | 0.00 | 0.00 | 28 | 1022.6 |
| 20260902103510 | 62 | 248 | 0.0 | 1.7 | 0.00 | 0.00 | 0.00 | 28 | 1022.6 |
| 20260902103003 | 62 | 246 | 0.0 | 0.9 | 0.00 | 0.00 | 0.00 | 29 | 1022.8 |
| 20260902102003 | 63 | 240 | 1.7 | 2.6 | 0.00 | 0.00 | 0.00 | 28 | 1022.7 |
| 20260902101504 | 63 | 250 | 1.7 | 4.3 | 0.00 | 0.00 | 0.00 | 28 | 1022.7 |
| 20260902101003 | 64 | 243 | 0.9 | 2.6 | 0.00 | 0.00 | 0.00 | 29 | 1022.8 |
| 20260902100504 | 63 | 238 | 1.7 | 4.3 | 0.00 | 0.00 | 0.00 | 28 | 1022.7 |
| 20260902095504 | 63 | 234 | 1.7 | 2.6 | 0.00 | 0.00 | 0.00 | 29 | 1022.8 |
| 20260902095004 | 63 | 211 | 1.7 | 5.2 | 0.00 | 0.00 | 0.00 | 29 | 1022.9 |
| 20260902094503 | 63 | 256 | 0.9 | 2.6 | 0.00 | 0.00 | 0.00 | 29 | 1022.8 |
| 20260902094003 | 64 | 242 | 1.7 | 2.6 | 0.00 | 0.00 | 0.00 | 29 | 1022.9 |
| 20260902093503 | 64 | 251 | 2.6 | 5.2 | 0.00 | 0.00 | 0.00 | 30 | 1022.8 |
| 20260902093003 | 64 | 230 | 0.9 | 2.6 | 0.00 | 0.00 | 0.00 | 30 | 1022.9 |
| 20260902092503 | 64 | 236 | 0.0 | 2.6 | 0.00 | 0.00 | 0.00 | 30 | 1023.0 |
| 20260902091503 | 63 | 245 | 1.7 | 2.6 | 0.00 | 0.00 | 0.00 | 30 | 1022.9 |
| 20260902090004 | 64 | 245 | 1.7 | 2.6 | 0.00 | 0.00 | 0.00 | 29 | 1022.9 |
| 20260902085503 | 64 | 253 | 2.6 | 5.2 | 0.00 | 0.00 | 0.00 | 29 | 1022.9 |
| 20260902085004 | 65 | 263 | 2.6 | 5.2 | 0.00 | 0.00 | 0.00 | 30 | 1023.0 |
| 20260902084503 | 65 | 272 | 2.6 | 4.3 | 0.00 | 0.00 | 0.00 | 29 | 1023.0 |
| 20260902084004 | 66 | 264 | 1.7 | 4.3 | 0.00 | 0.00 | 0.00 | 29 | 1023.0 |
| 20260902083503 | 66 | 245 | 2.6 | 5.2 | 0.00 | 0.00 | 0.00 | 29 | 1023.0 |
| 20260902083004 | 66 | 232 | 2.6 | 7.0 | 0.00 | 0.00 | 0.00 | 29 | 1023.0 |
| 20260902082504 | 66 | 234 | 2.6 | 6.1 | 0.00 | 0.00 | 0.00 | 30 | 1022.9 |
| 20260902082003 | 67 | 239 | 1.7 | 5.2 | 0.00 | 0.00 | 0.00 | 30 | 1022.9 |
| 20260902081003 | 67 | 216 | 3.5 | 6.1 | 0.00 | 0.00 | 0.00 | 29 | 1022.8 |
| 20260902080503 | 67 | 228 | 4.3 | 7.8 | 0.00 | 0.00 | 0.00 | 30 | 1022.8 |
| 20260902080004 | 65 | 222 | 2.6 | 6.1 | 0.00 | 0.00 | 0.00 | 32 | 1022.8 |
| 20260902075504 | 64 | 220 | 0.0 | 1.7 | 0.00 | 0.00 | 0.00 | 30 | 1022.8 |
| 20260902075003 | 64 | 206 | 1.7 | 4.3 | 0.00 | 0.00 | 0.00 | 30 | 1022.9 |
| 20260902074504 | 64 | 203 | 2.6 | 4.3 | 0.00 | 0.00 | 0.00 | 31 | 1022.8 |
| 20260902074003 | 64 | 211 | 0.9 | 2.6 | 0.00 | 0.00 | 0.00 | 32 | 1022.8 |
| 20260902073503 | 65 | 214 | 0.9 | 2.6 | 0.00 | 0.00 | 0.00 | 32 | 1022.8 |
| 20260902073004 | 65 | 211 | 1.7 | 2.6 | 0.00 | 0.00 | 0.00 | 32 | 1022.7 |
| 20260902072503 | 66 | 266 | 0.0 | 0.9 | 0.00 | 0.00 | 0.00 | 31 | 1022.7 |
| 20260902071504 | 66 | 247 | 0.9 | 2.6 | 0.00 | 0.00 | 0.00 | 32 | 1022.7 |
| 20260902071003 | 67 | 234 | 0.9 | 4.3 | 0.00 | 0.00 | 0.00 | 31 | 1022.7 |
| 20260902070503 | 67 | 233 | 2.6 | 4.3 | 0.00 | 0.00 | 0.00 | 32 | 1022.7 |
| 20260902070004 | 67 | 234 | 1.7 | 4.3 | 0.00 | 0.00 | 0.00 | 32 | 1022.6 |
| 20260902065503 | 68 | 241 | 0.9 | 4.3 | 0.00 | 0.00 | 0.00 | 31 | 1022.7 |
| 20260902065004 | 68 | 230 | 4.3 | 7.0 | 0.00 | 0.00 | 0.00 | 31 | 1022.7 |
| 20260902064504 | 68 | 234 | 3.5 | 5.2 | 0.00 | 0.00 | 0.00 | 31 | 1022.7 |
| 20260902064003 | 68 | 238 | 3.5 | 6.1 | 0.00 | 0.00 | 0.00 | 31 | 1022.7 |
| 20260902063504 | 68 | 244 | 1.7 | 2.6 | 0.00 | 0.00 | 0.00 | 31 | 1022.6 |
| 20260902063003 | 68 | 247 | 1.7 | 4.3 | 0.00 | 0.00 | 0.00 | 30 | 1022.7 |
| 20260902062004 | 69 | 235 | 3.5 | 7.0 | 0.00 | 0.00 | 0.00 | 31 | 1022.7 |
| 20260902061003 | 69 | 225 | 2.6 | 4.3 | 0.00 | 0.00 | 0.00 | 31 | 1022.7 |
| 20260902055503 | 70 | 233 | 3.5 | 7.0 | 0.00 | 0.00 | 0.00 | 33 | 1022.5 |
| 20260902055005 | 70 | 225 | 1.7 | 4.3 | 0.00 | 0.00 | 0.00 | 32 | 1022.6 |
| 20260902054503 | 70 | 236 | 2.6 | 5.2 | 0.00 | 0.00 | 0.00 | 32 | 1022.5 |
| 20260902054003 | 71 | 228 | 2.6 | 6.1 | 0.00 | 0.00 | 0.00 | 31 | 1022.6 |
| 20260902053504 | 71 | 229 | 2.6 | 6.1 | 0.00 | 0.00 | 0.00 | 31 | 1022.6 |
| 20260902053003 | 71 | 235 | 4.3 | 7.8 | 0.00 | 0.00 | 0.00 | 31 | 1022.8 |
| 20260902051503 | 71 | 220 | 2.6 | 5.2 | 0.00 | 0.00 | 0.00 | 31 | 1023.0 |
| 20260902051004 | 72 | 229 | 2.6 | 5.2 | 0.00 | 0.00 | 0.00 | 30 | 1023.0 |
| 20260902050007 | 72 | 233 | 4.3 | 7.0 | 0.00 | 0.00 | 0.00 | 30 | 1022.9 |
| 20260902045504 | 72 | 223 | 3.5 | 6.1 | 0.00 | 0.00 | 0.00 | 30 | 1022.9 |
| 20260902045004 | 73 | 234 | 3.5 | 7.0 | 0.00 | 0.00 | 0.00 | 31 | 1022.9 |
| 20260902044503 | 73 | 236 | 4.3 | 8.7 | 0.00 | 0.00 | 0.00 | 30 | 1022.8 |
| 20260902044004 | 73 | 236 | 1.7 | 6.1 | 0.00 | 0.00 | 0.00 | 30 | 1022.7 |
| 20260902043004 | 73 | 239 | 2.6 | 7.0 | 0.00 | 0.00 | 0.00 | 30 | 1022.6 |
| 20260902042503 | 74 | 224 | 4.3 | 7.0 | 0.00 | 0.00 | 0.00 | 30 | 1022.3 |
| 20260902042004 | 74 | 222 | 5.2 | 8.7 | 0.00 | 0.00 | 0.00 | 29 | 1022.4 |
| 20260902041504 | 74 | 223 | 5.2 | 7.8 | 0.00 | 0.00 | 0.00 | 29 | 1022.2 |
| 20260902041003 | 74 | 195 | 7.0 | 10.4 | 0.00 | 0.00 | 0.00 | 29 | 1022.3 |
| 20260902040004 | 75 | 237 | 5.2 | 12.2 | 0.00 | 0.00 | 0.00 | 28 | 1022.2 |
| 20260902035503 | 75 | 237 | 4.3 | 7.8 | 0.00 | 0.00 | 0.00 | 28 | 1022.1 |
| 20260902034503 | 75 | 248 | 4.3 | 7.8 | 0.00 | 0.00 | 0.00 | 28 | 1022.1 |
| 20260902034003 | 75 | 216 | 5.2 | 11.3 | 0.00 | 0.00 | 0.00 | 29 | 1022.0 |
| 20260902033504 | 75 | 237 | 5.2 | 10.4 | 0.00 | 0.00 | 0.00 | 29 | 1022.0 |
| 20260902032004 | 75 | 234 | 7.0 | 12.2 | 0.00 | 0.00 | 0.00 | 29 | 1021.6 |
| 20260902031003 | 76 | 233 | 7.8 | 12.2 | 0.00 | 0.00 | 0.00 | 28 | 1021.4 |
| 20260902030504 | 76 | 240 | 7.8 | 12.2 | 0.00 | 0.00 | 0.00 | 28 | 1021.4 |
| 20260902030004 | 76 | 244 | 7.8 | 13.9 | 0.00 | 0.00 | 0.00 | 28 | 1021.4 |
| 20260902025504 | 76 | 230 | 6.1 | 10.4 | 0.00 | 0.00 | 0.00 | 28 | 1021.4 |
| 20260902025003 | 76 | 242 | 4.3 | 10.4 | 0.00 | 0.00 | 0.00 | 28 | 1021.4 |
| 20260902024003 | 77 | 232 | 7.8 | 12.2 | 0.00 | 0.00 | 0.00 | 28 | 1021.3 |
| 20260902023503 | 77 | 237 | 5.2 | 10.4 | 0.00 | 0.00 | 0.00 | 28 | 1021.3 |
| 20260902023004 | 77 | 251 | 7.8 | 11.3 | 0.00 | 0.00 | 0.00 | 29 | 1021.3 |
| 20260902022503 | 77 | 236 | 7.0 | 13.9 | 0.00 | 0.00 | 0.00 | 29 | 1021.0 |
| 20260902022003 | 77 | 231 | 6.1 | 13.0 | 0.00 | 0.00 | 0.00 | 29 | 1021.0 |
| 20260902021004 | 78 | 202 | 8.7 | 17.4 | 0.00 | 0.00 | 0.00 | 28 | 1020.8 |
| 20260902020504 | 78 | 205 | 10.4 | 17.4 | 0.00 | 0.00 | 0.00 | 28 | 1020.7 |
| 20260902020003 | 79 | 192 | 11.3 | 20.0 | 0.00 | 0.00 | 0.00 | 28 | 1020.6 |
| 20260902015503 | 79 | 192 | 13.9 | 20.9 | 0.00 | 0.00 | 0.00 | 27 | 1020.7 |
| 20260902015003 | 80 | 196 | 13.0 | 19.1 | 0.00 | 0.00 | 0.00 | 27 | 1020.8 |
| 20260902014003 | 81 | 189 | 14.8 | 22.6 | 0.00 | 0.00 | 0.00 | 27 | 1020.8 |
| 20260902013504 | 81 | 180 | 15.6 | 22.6 | 0.00 | 0.00 | 0.00 | 27 | 1020.9 |
| 20260902013004 | 82 | 181 | 13.9 | 20.0 | 0.00 | 0.00 | 0.00 | 26 | 1021.0 |
| 20260902012004 | 83 | 191 | 12.2 | 18.2 | 0.00 | 0.00 | 0.00 | 21 | 1021.1 |
| 20260902011503 | 83 | 191 | 13.0 | 19.1 | 0.00 | 0.00 | 0.00 | 22 | 1021.2 |
| 20260902010004 | 83 | 197 | 12.2 | 17.4 | 0.00 | 0.00 | 0.00 | 21 | 1021.5 |
| 20260902005503 | 84 | 198 | 12.2 | 17.4 | 0.00 | 0.00 | 0.00 | 21 | 1021.5 |
| 20260902004504 | 84 | 191 | 12.2 | 17.4 | 0.00 | 0.00 | 0.00 | 19 | 1021.6 |
| 20260902004004 | 85 | 202 | 12.2 | 18.2 | 0.00 | 0.00 | 0.00 | 19 | 1021.6 |
| 20260902003504 | 85 | 186 | 9.6 | 18.2 | 0.00 | 0.00 | 0.00 | 19 | 1021.7 |
| 20260902003003 | 86 | 198 | 11.3 | 17.4 | 0.00 | 0.00 | 0.00 | 19 | 1021.6 |
| 20260902002503 | 86 | 208 | 12.2 | 18.2 | 0.00 | 0.00 | 0.00 | 18 | 1021.6 |
| 20260902002004 | 86 | 215 | 12.2 | 19.1 | 0.00 | 0.00 | 0.00 | 17 | 1021.6 |
| 20260902001504 | 87 | 209 | 13.9 | 19.1 | 0.00 | 0.00 | 0.00 | 17 | 1021.6 |
| 20260902000504 | 87 | 195 | 8.7 | 15.6 | 0.00 | 0.00 | 0.00 | 17 | 1021.7 |
| 20260902000003 | 87 | 217 | 11.3 | 18.2 | 0.00 | 0.00 | 0.00 | 17 | 1021.8 |
| 20260901235504 | 87 | 218 | 11.3 | 17.4 | 0.00 | 0.00 | 0.00 | 17 | 1021.7 |
| 20260901235003 | 87 | 210 | 12.2 | 18.2 | 0.00 | 0.00 | 0.00 | 17 | 1021.7 |
| 20260901233503 | 89 | 205 | 11.3 | 17.4 | 0.00 | 0.00 | 0.00 | 15 | 1021.7 |
| 20260901233004 | 89 | 205 | 12.2 | 19.1 | 0.00 | 0.00 | 0.00 | 15 | 1021.5 |
| 20260901232503 | 89 | 191 | 12.2 | 18.2 | 0.00 | 0.00 | 0.00 | 13 | 1021.7 |
| 20260901232004 | 89 | 206 | 11.3 | 20.9 | 0.00 | 0.00 | 0.00 | 14 | 1021.7 |
| 20260901231503 | 88 | 191 | 14.8 | 20.9 | 0.00 | 0.00 | 0.00 | 14 | 1021.8 |
| 20260901231004 | 87 | 197 | 14.8 | 22.6 | 0.00 | 0.00 | 0.00 | 14 | 1021.7 |
| 20260901230504 | 88 | 183 | 17.4 | 26.9 | 0.00 | 0.00 | 0.00 | 14 | 1021.7 |
| 20260901230003 | 88 | 189 | 16.5 | 22.6 | 0.00 | 0.00 | 0.00 | 12 | 1021.7 |
| 20260901225504 | 89 | 190 | 14.8 | 25.2 | 0.00 | 0.00 | 0.00 | 11 | 1021.7 |
| 20260901225004 | 88 | 193 | 12.2 | 25.2 | 0.00 | 0.00 | 0.00 | 12 | 1021.8 |
| 20260901224504 | 88 | 178 | 16.5 | 25.2 | 0.00 | 0.00 | 0.00 | 11 | 1021.8 |
| 20260901224003 | 89 | 184 | 16.5 | 25.2 | 0.00 | 0.00 | 0.00 | 10 | 1021.8 |
| 20260901223005 | 88 | 178 | 17.4 | 28.7 | 0.00 | 0.00 | 0.00 | 9 | 1021.8 |
| 20260901222503 | 89 | 178 | 16.5 | 26.1 | 0.00 | 0.00 | 0.00 | 11 | 1021.8 |
| 20260901222004 | 88 | 184 | 16.5 | 26.1 | 0.00 | 0.00 | 0.00 | 11 | 1021.8 |
| 20260901221504 | 88 | 186 | 18.2 | 26.1 | 0.00 | 0.00 | 0.00 | 11 | 1021.9 |
| 20260901220503 | 89 | 197 | 14.8 | 24.3 | 0.00 | 0.00 | 0.00 | 10 | 1021.9 |
| 20260901220003 | 89 | 191 | 16.5 | 26.1 | 0.00 | 0.00 | 0.00 | 13 | 1021.9 |
| 20260901215504 | 89 | 191 | 17.4 | 26.9 | 0.00 | 0.00 | 0.00 | 14 | 1022.1 |
| 20260901215004 | 90 | 215 | 13.9 | 20.9 | 0.00 | 0.00 | 0.00 | 11 | 1022.1 |
| 20260901213503 | 89 | 181 | 15.6 | 22.6 | 0.00 | 0.00 | 0.00 | 12 | 1022.1 |
| 20260901213004 | 89 | 204 | 13.9 | 21.7 | 0.00 | 0.00 | 0.00 | 12 | 1022.2 |
| 20260901212503 | 89 | 201 | 12.2 | 18.2 | 0.00 | 0.00 | 0.00 | 13 | 1022.2 |
| 20260901212004 | 88 | 198 | 13.9 | 20.0 | 0.00 | 0.00 | 0.00 | 14 | 1022.3 |
| 20260901211503 | 89 | 205 | 14.8 | 20.9 | 0.00 | 0.00 | 0.00 | 11 | 1022.3 |
| 20260901210004 | 89 | 190 | 15.6 | 22.6 | 0.00 | 0.00 | 0.00 | 12 | 1022.3 |
| 20260901205504 | 89 | 207 | 15.6 | 24.3 | 0.00 | 0.00 | 0.00 | 11 | 1022.4 |
| 20260901205003 | 89 | 206 | 13.9 | 20.9 | 0.00 | 0.00 | 0.00 | 12 | 1022.3 |
| 20260901204504 | 89 | 193 | 15.6 | 22.6 | 0.00 | 0.00 | 0.00 | 12 | 1022.3 |
| 20260901204004 | 89 | 200 | 13.0 | 21.7 | 0.00 | 0.00 | 0.00 | 13 | 1022.3 |
| 20260901203004 | 88 | 207 | 13.9 | 24.3 | 0.00 | 0.00 | 0.00 | 14 | 1022.4 |
| 20260901202503 | 88 | 188 | 13.9 | 25.2 | 0.00 | 0.00 | 0.00 | 14 | 1022.6 |
| 20260901202004 | 88 | 197 | 14.8 | 21.7 | 0.00 | 0.00 | 0.00 | 14 | 1022.6 |
| 20260901201004 | 88 | 199 | 16.5 | 25.2 | 0.00 | 0.00 | 0.00 | 16 | 1022.7 |
| 20260901200504 | 88 | 203 | 13.9 | 22.6 | 0.00 | 0.00 | 0.00 | 16 | 1022.9 |
| 20260901194503 | 87 | 208 | 16.5 | 30.4 | 0.00 | 0.00 | 0.00 | 17 | 1022.9 |
| 20260901194003 | 87 | 191 | 17.4 | 25.2 | 0.00 | 0.00 | 0.00 | 16 | 1022.9 |
| 20260901193504 | 86 | 203 | 15.6 | 24.3 | 0.00 | 0.00 | 0.00 | 19 | 1023.1 |
| 20260901193004 | 87 | 196 | 15.6 | 26.9 | 0.00 | 0.00 | 0.00 | 21 | 1023.3 |
| 20260901192503 | 86 | 195 | 13.9 | 20.9 | 0.00 | 0.00 | 0.00 | 23 | 1023.4 |